Weather History for Charlevoix, MI

Change the Weather History Date:

Monday, November 5, 2012

  Actual Average Record
Temperature  
Mean Temperature 33 °F -  
Max Temperature 37 °F 43 °F 68 °F (2008)
Min Temperature 30 °F 35 °F 30 °F (2001)
Degree Days  
Heating Degree Days 32    
Moisture  
Dew Point 24 °F    
Average Humidity 69    
Maximum Humidity 84    
Minimum Humidity 54    
Precipitation  
Precipitation 0.00 in - - ()
Sea Level Pressure  
Sea Level Pressure 30.24 in    
Wind  
Wind Speed 7 mph (East)    
Max Wind Speed 12 mph    
Max Gust Speed -    
Visibility 10 miles    
Events      
Averages and records for this station are not official NWS values.
T = Trace of Precipitation, MM = Missing Value Source: NWS Daily Summary

Daily Weather History Graph

Daily Weather History Graph

Search for Another Location

Airport:

Trip Planner

Search our weather history database for the weather conditions in past years. The results will help you decide how hot, cold, wet, or windy it might be!

Date:

Astronomy

Nov. 05, 2012 Rise Set
Actual Time 7:26 AM EST 5:22 PM EST
Civil Twilight 6:55 AM EST 5:53 PM EST
Nautical Twilight 6:20 AM EST 6:28 PM EST
Astronomical Twilight 5:45 AM EST 7:03 PM EST
Moon 10:59 PM EST (11/5) 12:46 PM EST (11/5)
Length of Visible Light 10h 58m
Length of Day
9h 55m
Waning Gibbous, 63% of the Moon is Illuminated
Nov 5
Waning Gibbous
Nov 6
Last Quarter
Nov 13
New
Nov 20
First Quarter
Nov 28
Full

Hourly Weather History & Observations

Time (EST) Temp. Windchill Dew Point Humidity Pressure Visibility Wind Dir Wind Speed Gust Speed Precip Events Conditions
12:13 AM 34.7 °F 29.6 °F 26.6 °F 72% 30.24 in 10.0 mi East 5.8 mph - N/A   Overcast
12:34 AM 34.7 °F 28.1 °F 26.4 °F 72% 30.24 in 10.0 mi ENE 8.1 mph - N/A   Overcast
12:54 AM 34.7 °F 28.1 °F 26.1 °F 71% 30.25 in 10.0 mi East 8.1 mph - N/A   Overcast
1:14 AM 34.9 °F 29.0 °F 26.2 °F 71% 30.25 in 10.0 mi East 6.9 mph - N/A   Overcast
1:34 AM 34.9 °F 28.3 °F 26.2 °F 71% 30.24 in 10.0 mi ENE 8.1 mph - N/A   Overcast
1:53 AM 34.7 °F 29.6 °F 26.2 °F 71% 30.24 in 10.0 mi ENE 5.8 mph - N/A   Overcast
2:14 AM 34.7 °F 27.5 °F 28.0 °F 77% 30.24 in 10.0 mi ENE 9.2 mph - N/A   Overcast
2:33 AM 34.2 °F 26.8 °F 29.1 °F 82% 30.25 in 10.0 mi ENE 9.2 mph - N/A   Overcast
2:54 AM 33.8 °F 27.7 °F 28.9 °F 82% 30.25 in 10.0 mi ENE 6.9 mph - N/A   Overcast
3:14 AM 33.4 °F 25.9 °F 28.8 °F 83% 30.25 in 10.0 mi ENE 9.2 mph - N/A   Overcast
3:34 AM 33.3 °F 24.6 °F 28.4 °F 82% 30.25 in 10.0 mi East 11.5 mph - N/A   Overcast
3:54 AM 33.1 °F 24.4 °F 28.4 °F 83% 30.25 in 10.0 mi ENE 11.5 mph - N/A   Overcast
4:14 AM 32.9 °F 24.7 °F 28.4 °F 84% 30.25 in 10.0 mi ENE 10.4 mph - N/A   Overcast
4:34 AM 32.9 °F 24.7 °F 28.2 °F 83% 30.25 in 10.0 mi ENE 10.4 mph - N/A   Overcast
4:54 AM 32.5 °F 24.8 °F 28.2 °F 84% 30.25 in 10.0 mi ENE 9.2 mph - N/A   Overcast
5:13 AM 32.5 °F 25.5 °F 27.5 °F 82% 30.26 in 10.0 mi ENE 8.1 mph - N/A   Overcast
5:34 AM 32.4 °F 26.9 °F 27.5 °F 82% 30.26 in 10.0 mi NE 5.8 mph - N/A   Overcast
5:53 AM 32.0 °F 25.6 °F 27.1 °F 82% 30.26 in 10.0 mi NE 6.9 mph - N/A   Overcast
6:13 AM 32.0 °F 24.8 °F 26.8 °F 81% 30.27 in 10.0 mi ENE 8.1 mph - N/A   Overcast
6:34 AM 32.0 °F 26.4 °F 25.7 °F 78% 30.27 in 10.0 mi ENE 5.8 mph - N/A   Overcast
7:14 AM 32.0 °F 24.8 °F 25.9 °F 78% 30.27 in 10.0 mi ENE 8.1 mph - N/A   Overcast
7:34 AM 32.0 °F 26.4 °F 25.7 °F 78% 30.27 in 10.0 mi East 5.8 mph - N/A   Overcast
7:54 AM 32.0 °F 25.6 °F 25.3 °F 76% 30.27 in 10.0 mi East 6.9 mph - N/A   Overcast
8:14 AM 32.4 °F 25.3 °F 24.8 °F 74% 30.27 in 10.0 mi East 8.1 mph - N/A   Overcast
8:34 AM 32.5 °F 24.8 °F 23.9 °F 70% 30.28 in 10.0 mi East 9.2 mph - N/A   Overcast
8:54 AM 33.1 °F 25.5 °F 23.5 °F 68% 30.28 in 10.0 mi East 9.2 mph - N/A   Overcast
9:14 AM 33.1 °F 26.9 °F 23.0 °F 66% 30.28 in 10.0 mi East 6.9 mph - N/A   Overcast
9:34 AM 33.3 °F 25.1 °F 22.8 °F 66% 30.28 in 10.0 mi ESE 10.4 mph - N/A   Overcast
9:54 AM 33.1 °F 25.5 °F 22.5 °F 65% 30.28 in 10.0 mi East 9.2 mph - N/A   Overcast
10:14 AM 33.4 °F 25.4 °F 23.0 °F 66% 30.29 in 10.0 mi ENE 10.4 mph - N/A   Overcast
10:34 AM 33.1 °F 26.9 °F 22.6 °F 66% 30.29 in 10.0 mi ESE 6.9 mph - N/A   Overcast
10:53 AM 32.9 °F 26.7 °F 22.6 °F 66% 30.29 in 10.0 mi ESE 6.9 mph - N/A   Overcast
11:14 AM 33.3 °F 27.1 °F 21.9 °F 63% 30.29 in 10.0 mi ESE 6.9 mph - N/A   Overcast
11:34 AM 33.8 °F 27.0 °F 21.2 °F 60% 30.29 in 10.0 mi East 8.1 mph - N/A   Overcast
11:53 AM 33.3 °F 30.2 °F 20.5 °F 59% 30.29 in 10.0 mi East 3.5 mph - N/A   Overcast
12:14 PM 34.0 °F 28.8 °F 21.2 °F 60% 30.28 in 10.0 mi East 5.8 mph - N/A   Overcast
12:34 PM 33.8 °F 26.4 °F 21.2 °F 60% 30.27 in 10.0 mi ESE 9.2 mph - N/A   Overcast
12:54 PM 34.2 °F 29.0 °F 21.7 °F 60% 30.26 in 10.0 mi ESE 5.8 mph - N/A   Overcast
1:14 PM 34.7 °F 28.8 °F 21.7 °F 59% 30.25 in 10.0 mi East 6.9 mph - N/A   Overcast
1:33 PM 34.3 °F 30.2 °F 21.6 °F 60% 30.25 in 10.0 mi East 4.6 mph - N/A   Overcast
1:54 PM 34.5 °F 29.4 °F 21.6 °F 59% 30.25 in 10.0 mi East 5.8 mph - N/A   Overcast
2:14 PM 35.8 °F 31.9 °F 21.7 °F 57% 30.25 in 10.0 mi ESE 4.6 mph - N/A   Overcast
2:34 PM 36.7 °F 32.0 °F 21.6 °F 54% 30.24 in 10.0 mi East 5.8 mph - N/A   Overcast
2:54 PM 35.8 °F 31.9 °F 21.7 °F 57% 30.24 in 10.0 mi East 4.6 mph - N/A   Overcast
3:14 PM 34.7 °F 31.8 °F 21.7 °F 59% 30.24 in 10.0 mi ENE 3.5 mph - N/A   Overcast
3:34 PM 35.2 °F 31.2 °F 22.1 °F 59% 30.24 in 10.0 mi ENE 4.6 mph - N/A   Overcast
3:54 PM 34.9 °F 29.9 °F 21.6 °F 58% 30.24 in 10.0 mi East 5.8 mph - N/A   Overcast
4:14 PM 34.7 °F 31.8 °F 21.6 °F 59% 30.23 in 10.0 mi ENE 3.5 mph - N/A   Overcast
4:34 PM 34.3 °F 29.2 °F 21.2 °F 59% 30.22 in 10.0 mi East 5.8 mph - N/A   Overcast
4:54 PM 34.3 °F 31.4 °F 21.6 °F 60% 30.22 in 10.0 mi ENE 3.5 mph - N/A   Overcast
5:14 PM 34.3 °F 30.2 °F 21.9 °F 60% 30.22 in 10.0 mi ESE 4.6 mph - N/A   Overcast
5:34 PM 34.0 °F - 22.1 °F 62% 30.22 in 10.0 mi Calm Calm - N/A   Overcast
5:54 PM 33.8 °F 29.6 °F 22.6 °F 64% 30.22 in 10.0 mi SE 4.6 mph - N/A   Overcast
6:14 PM 33.8 °F 30.8 °F 21.4 °F 60% 30.22 in 10.0 mi South 3.5 mph - N/A   Overcast
6:33 PM 33.8 °F 30.8 °F 21.6 °F 61% 30.22 in 10.0 mi SE 3.5 mph - N/A   Overcast
6:53 PM 32.9 °F - 21.2 °F 62% 30.22 in 10.0 mi Calm Calm - N/A   Mostly Cloudy
7:14 PM 32.9 °F - 21.7 °F 64% 30.22 in 10.0 mi Calm Calm - N/A   Mostly Cloudy
7:34 PM 31.6 °F - 23.7 °F 73% 30.22 in 10.0 mi Calm Calm - N/A   Overcast
7:54 PM 31.5 °F - 24.6 °F 76% 30.22 in 10.0 mi Calm Calm - N/A   Overcast
8:14 PM 30.4 °F - 23.9 °F 77% 30.22 in 10.0 mi Calm Calm - N/A   Overcast
8:34 PM 30.6 °F - 24.4 °F 78% 30.21 in 10.0 mi Calm Calm - N/A   Overcast
8:53 PM 30.7 °F - 23.4 °F 74% 30.21 in 10.0 mi Calm Calm - N/A   Mostly Cloudy
9:14 PM 31.1 °F 26.4 °F 23.5 °F 74% 30.21 in 10.0 mi SE 4.6 mph - N/A   Overcast
9:33 PM 32.0 °F 27.5 °F 23.0 °F 69% 30.20 in 10.0 mi SE 4.6 mph - N/A   Overcast
9:53 PM 32.0 °F 27.5 °F 22.6 °F 68% 30.20 in 10.0 mi SE 4.6 mph - N/A   Overcast
10:14 PM 31.6 °F 27.0 °F 22.5 °F 69% 30.19 in 10.0 mi SE 4.6 mph - N/A   Overcast
10:34 PM 31.1 °F - 22.3 °F 70% 30.19 in 10.0 mi Calm Calm - N/A   Overcast
10:54 PM 30.9 °F 25.2 °F 22.8 °F 72% 30.18 in 10.0 mi SE 5.8 mph - N/A   Overcast
11:14 PM 30.9 °F 26.2 °F 23.0 °F 72% 30.17 in 10.0 mi SSE 4.6 mph - N/A   Overcast
11:33 PM 30.7 °F 24.9 °F 22.8 °F 72% 30.17 in 10.0 mi SSE 5.8 mph - N/A   Overcast
11:54 PM 30.2 °F 24.3 °F 22.6 °F 73% 30.17 in 10.0 mi SSE 5.8 mph - N/A   Overcast